User: anonymous
Location: Unspecified
(0.0000°N, 0.0000°E)
Time: 13:39:33
(UTC+00:00)
Language:

CLOUDSAT - Orbit

View from above orbital plane
View from above orbital plane
View from above satellite
View from above satellite

Ground track
Ground track

The orbit data is extracted from the following two-line orbital elements,

1 29107U 06016A   14243.38527280  .00000415  00000-0  10212-3 0  7527
2 29107 098.2017 186.0579 0001408 065.2854 294.8463 14.57124086443787
Epoch (UTC): 31 August 2014 09:14:47
Eccentricity: 0.0001408
inclination: 98.2017°
perigee height: 701 km
apogee height: 703 km
right ascension of ascending node: 186.0579°
argument of perigee: 65.2854°
revolutions per day: 14.57124086
mean anomaly at epoch: 294.8463°
orbit number at epoch: 44378

The dashed part of the orbit path shows where the satellite is in the earth's shadow,  

DLR